Hourly Data Report for November 04, 2019

All times are specified in Local Standard Time (LST). Add 1 hour to adjust for Daylight Saving Time where and when it is observed.

SEPT-ILES
QUEBEC
Current Station Operator: ECCC - MSC

50°13'00.000" N
66°15'00.000" W
52.60 m
7047914
71279
XZV

Download Data

Hourly Data (November 2019)
Hourly Data Report for November 4, 2019
TIME Temp Definition
°C
Dew Point Definition
°C
Rel Hum Definition
%
Wind Dir Definition
10's deg

Wind Spd Definition
km/h
Visibility Definition
km
Stn Press Definition
kPa
Hmdx Definition


Wind Chill Definition


Weather Definition


00:00 1.6 -0.9 83 27 6   100.51     LegendNANA
01:00 -0.1 -1.8 89 29 5   100.56   -2 LegendNANA
02:00 0.5 -0.9 90 27 8   100.61     LegendNANA
03:00 1.7 -0.9 83 26 8   100.63     LegendNANA
04:00 0.4 -1.6 86 29 5   100.71     LegendNANA
05:00 -0.5 -2.0 90 29 6   100.77   -3 LegendNANA
06:00 1.3 -1.4 82 28 8   100.82     LegendNANA
07:00 0.9 -1.6 84 29 5   100.91     LegendNANA
08:00 2.6 -1.2 76 26 9   100.96     LegendNANA
09:00 4.3 -1.4 66 26 12   100.99     LegendNANA
10:00 4.6 -2.8 59 28 15   101.03     LegendNANA
11:00 4.7 -3.1 57 29 15   101.06     LegendNANA
12:00 4.0 -2.8 62 31 15   101.16     LegendNANA
13:00 4.3 -3.7 56 29 11   101.22     LegendNANA
14:00 4.1 -3.7 57 26 9   101.30     LegendNANA
15:00 3.9 -4.4 55 28 6   101.40     LegendNANA
16:00 3.3 -5.1 54 26 12   101.48     LegendNANA
17:00 2.1 -5.3 58 27 10   101.59     LegendNANA
18:00 0.5 -5.5 64 28 6   101.65     LegendNANA
19:00 -0.6 -5.7 68 31 4   101.70   -2 LegendNANA
20:00 -2.1 -5.7 76 29 4   101.74   -4 LegendNANA
21:00 0.0 -5.9 65 27 8   101.79   -3 LegendNANA
22:00 -2.3 -6.0 76 28 4   101.83   -4 LegendNANA
23:00 -3.8 -6.1 84 1 2   101.82   -5 LegendNANA

Notes on Data Quality.

Legend

  • E = Estimated
  • M = Missing
  • NA = Not Available
Date modified: